Time,TemperatureF,DewpointF,PressureIn,WindDirection,WindDirectionDegrees,WindSpeedMPH,WindSpeedGustMPH,Humidity,HourlyPrecipIn,Conditions,Clouds,dailyrainin,SoftwareType,DateUTC
2013-11-15 00:03:00,34.0,19.0,30.22,WNW,286,0.0,1.0,54,0.00,,,0.00,,2013-11-15 05:03:00,
2013-11-15 00:44:00,33.0,20.0,30.21,NNW,346,2.0,4.0,58,0.00,,,0.00,,2013-11-15 05:44:00,
2013-11-15 00:53:00,33.0,20.0,30.21,NNW,346,2.0,4.0,58,0.00,,,0.00,,2013-11-15 05:53:00,
2013-11-15 01:02:00,33.0,20.0,30.21,NNW,346,2.0,4.0,58,0.00,,,0.00,,2013-11-15 06:02:00,
2013-11-15 01:44:00,33.0,20.0,30.20,NW,319,2.0,3.0,58,0.00,,,0.00,,2013-11-15 06:44:00,
2013-11-15 01:53:00,33.0,20.0,30.20,NW,319,2.0,3.0,58,0.00,,,0.00,,2013-11-15 06:53:00,
2013-11-15 02:02:00,33.0,20.0,30.20,NW,319,2.0,3.0,58,0.00,,,0.00,,2013-11-15 07:02:00,
2013-11-15 02:42:00,33.0,20.0,30.19,NE,42,1.0,4.0,58,0.00,,,0.00,,2013-11-15 07:42:00,
2013-11-15 02:52:00,33.0,20.0,30.19,NE,42,1.0,4.0,58,0.00,,,0.00,,2013-11-15 07:52:00,
2013-11-15 03:01:00,33.0,20.0,30.19,NE,42,1.0,4.0,58,0.00,,,0.00,,2013-11-15 08:01:00,
2013-11-15 07:42:00,34.0,19.0,30.25,South,182,2.0,2.0,54,0.00,,,0.00,,2013-11-15 12:42:00,
2013-11-15 07:52:00,34.0,19.0,30.25,South,182,2.0,2.0,54,0.00,,,0.00,,2013-11-15 12:52:00,
2013-11-15 10:53:00,47.0,23.0,30.27,SW,223,3.0,5.0,39,0.00,,,0.00,,2013-11-15 15:53:00,
2013-11-15 11:03:00,47.0,23.0,30.27,SW,223,3.0,5.0,39,0.00,,,0.00,,2013-11-15 16:03:00,
2013-11-15 11:43:00,52.0,25.0,30.23,South,183,3.0,-999.0,34,-99.99,,,-99.99,,2013-11-15 16:43:00,
2013-11-15 11:53:00,52.0,25.0,30.23,South,183,3.0,-999.0,34,-99.99,,,-99.99,,2013-11-15 16:53:00,
2013-11-15 12:03:00,52.0,25.0,30.23,South,183,3.0,-999.0,34,-99.99,,,-99.99,,2013-11-15 17:03:00,
2013-11-15 12:42:00,58.0,20.0,30.22,South,173,6.0,10.0,23,0.00,,,0.00,,2013-11-15 17:42:00,
2013-11-15 12:52:00,58.0,20.0,30.22,South,173,6.0,10.0,23,0.00,,,0.00,,2013-11-15 17:52:00,
2013-11-15 13:02:00,58.0,20.0,30.22,South,173,6.0,10.0,23,0.00,,,0.00,,2013-11-15 18:02:00,
2013-11-15 13:42:00,58.0,19.0,30.19,SW,229,3.0,7.0,22,0.00,,,0.00,,2013-11-15 18:42:00,
2013-11-15 13:52:00,58.0,19.0,30.19,SW,229,3.0,7.0,22,0.00,,,0.00,,2013-11-15 18:52:00,
2013-11-15 14:02:00,58.0,19.0,30.19,SW,229,3.0,7.0,22,0.00,,,0.00,,2013-11-15 19:02:00,
2013-11-15 14:42:00,61.0,18.0,30.17,SSE,160,2.0,9.0,19,0.00,,,0.00,,2013-11-15 19:42:00,
2013-11-15 14:52:00,61.0,18.0,30.17,SSE,160,2.0,9.0,19,0.00,,,0.00,,2013-11-15 19:52:00,
2013-11-15 15:02:00,61.0,18.0,30.17,SSE,160,2.0,9.0,19,0.00,,,0.00,,2013-11-15 20:02:00,
2013-11-15 15:42:00,60.0,19.0,30.16,SW,218,1.0,4.0,20,0.00,,,0.00,,2013-11-15 20:42:00,
2013-11-15 15:52:00,60.0,19.0,30.16,SW,218,1.0,4.0,20,0.00,,,0.00,,2013-11-15 20:52:00,
2013-11-15 16:02:00,60.0,19.0,30.16,SW,218,1.0,4.0,20,0.00,,,0.00,,2013-11-15 21:02:00,
2013-11-15 16:43:00,59.0,18.0,30.16,WNW,292,2.0,8.0,20,0.00,,,0.00,,2013-11-15 21:43:00,
2013-11-15 16:55:00,59.0,18.0,30.16,WNW,292,2.0,8.0,20,0.00,,,0.00,,2013-11-15 21:55:00,
2013-11-15 17:03:00,59.0,18.0,30.16,WNW,292,2.0,8.0,20,0.00,,,0.00,,2013-11-15 22:03:00,
2013-11-15 17:43:00,55.0,20.0,30.16,NNW,345,2.0,3.0,25,0.00,,,0.00,,2013-11-15 22:43:00,
2013-11-15 17:53:00,55.0,20.0,30.16,NNW,345,2.0,3.0,25,0.00,,,0.00,,2013-11-15 22:53:00,
2013-11-15 18:03:00,55.0,20.0,30.16,NNW,345,2.0,3.0,25,0.00,,,0.00,,2013-11-15 23:03:00,
2013-11-15 18:43:00,53.0,23.0,30.16,North,5,1.0,3.0,31,0.00,,,0.00,,2013-11-15 23:43:00,
2013-11-15 18:52:00,53.0,23.0,30.16,North,5,1.0,3.0,31,0.00,,,0.00,,2013-11-15 23:52:00,
2013-11-15 19:03:00,53.0,23.0,30.16,North,5,1.0,3.0,31,0.00,,,0.00,,2013-11-16 00:03:00,
2013-11-15 19:42:00,51.0,22.0,30.18,North,10,1.0,3.0,32,0.00,,,0.00,,2013-11-16 00:42:00,
2013-11-15 19:52:00,51.0,22.0,30.18,North,10,1.0,3.0,32,0.00,,,0.00,,2013-11-16 00:52:00,
2013-11-15 20:01:00,51.0,22.0,30.18,North,10,1.0,3.0,32,0.00,,,0.00,,2013-11-16 01:01:00,
2013-11-15 20:42:00,50.0,27.0,30.20,West,279,2.0,5.0,40,0.00,,,0.00,,2013-11-16 01:42:00,
2013-11-15 20:52:00,50.0,27.0,30.20,West,279,2.0,5.0,40,0.00,,,0.00,,2013-11-16 01:52:00,
2013-11-15 21:02:00,50.0,27.0,30.20,West,279,2.0,5.0,40,0.00,,,0.00,,2013-11-16 02:02:00,
2013-11-15 21:42:00,49.0,30.0,30.21,WNW,285,1.0,5.0,48,0.00,,,0.00,,2013-11-16 02:42:00,
2013-11-15 21:52:00,49.0,30.0,30.21,WNW,285,1.0,5.0,48,0.00,,,0.00,,2013-11-16 02:52:00,
2013-11-15 22:02:00,49.0,30.0,30.21,WNW,285,1.0,5.0,48,0.00,,,0.00,,2013-11-16 03:02:00,
2013-11-15 23:43:00,45.0,40.0,30.23,NE,42,1.0,2.0,82,0.00,,,0.01,,2013-11-16 04:43:00,
2013-11-15 23:53:00,45.0,40.0,30.23,NE,42,1.0,2.0,82,0.00,,,0.01,,2013-11-16 04:53:00,